Flag for Brazil Weather past 2 weeks in Porto Velho, Rondônia, Brazil

Now
93 °F

Scattered clouds.


Feels Like: 98 °F
Forecast: 74 / 95 °F
Wind: 2 mph from West

Location: Porto Velho Aeroporto

Current Time: Aug 29, 2015 at 1:40:20 PM

Latest Report: Aug 29, 2015 at 1:00 PM


Visibility: N/A

Pressure: 29.89 "Hg

Humidity: 44%

Dew point: 68 °F

Location of Porto VelhoLocation

Historic Weather in Porto Velho — Graph

°F

Porto Velho temperature yesterday

Maximum temperature yesterday: 90 °F (at 1:00 PM)
Minimum temperature yesterday: 72 °F (at 5:00 AM)
Average temperature yesterday: 79 °F

Past Weeks' High & Low Weather Summary

 TemperatureHumidityPressure
High99 °F (Aug 18, 2:00 PM)89% (Aug 18, 5:00 AM)29.98 "Hg (Aug 18, 5:00 AM)
Low70 °F (Aug 15, 6:00 AM)19% (Aug 18, 2:00 PM)29.71 "Hg (Aug 25, 4:00 PM)
Average83 °F60%29.85 "Hg
* Reported Aug 14 12:00 Noon — Aug 29 12:00 Noon, Porto Velho, Weather by CustomWeather, © 2015

Note: Actual official high and low records may vary slightly from our data, if they occured in-between our weather recording intervals... More about our weather records

Advertising

Porto Velho weather history for previous 24 hours

 ConditionsComfort  
Time TempWeatherWind HumidityBarometerVisibility
12:00 PM
Sat, Aug 29
91 °FScattered clouds.3 mph49%29.92 "HgN/A
11:00 AM90 °FPassing clouds.3 mph55%29.95 "HgN/A
10:00 AM84 °FSunny.3 mph66%29.95 "Hg10 mi
9:00 AM81 °FClear.5 mph74%29.95 "Hg3 mi
8:00 AM77 °FClear.2 mph83%29.95 "Hg3 mi
7:00 AM73 °FClear.2 mph89%29.92 "Hg2 mi
6:00 AM72 °FClear.2 mph88%29.89 "Hg2 mi
5:00 AM72 °FClear.No wind88%29.89 "Hg2 mi
3:00 AM73 °FClear.No wind89%29.89 "Hg3 mi
2:00 AM73 °FPassing clouds.No wind89%29.89 "Hg3 mi
1:00 AM75 °FPassing clouds.2 mph83%29.89 "Hg5 mi
12:00 AM75 °FPassing clouds.6 mph83%29.92 "Hg5 mi
11:00 PM
Fri, Aug 28
77 °FPassing clouds.2 mph83%29.89 "Hg5 mi
10:00 PM77 °FPassing clouds.No wind79%29.89 "Hg5 mi
9:00 PM79 °FPassing clouds.3 mph74%29.89 "HgN/A
8:00 PM79 °FPassing clouds.No wind74%29.86 "HgN/A
7:00 PM81 °FPassing clouds.No wind70%29.86 "HgN/A
6:00 PM86 °FPassing clouds.3 mph59%29.83 "HgN/A
5:00 PM88 °FPassing clouds.6 mph55%29.83 "HgN/A
4:00 PM88 °FScattered clouds.5 mph55%29.83 "HgN/A
3:00 PM88 °FScattered clouds.6 mph59%29.86 "HgN/A
2:00 PM88 °FScattered clouds.12 mph55%29.89 "HgN/A
1:00 PM90 °FScattered clouds.6 mph52%29.92 "HgN/A
Weather by CustomWeather, © 2015

See weather overviewHow to use our weather pages